EW7239 Weather Reports


time (UTC)temp
C
wind
direction
speed
KPH
gust
KPH
rain 1hr
cm
rain 24hr
cm
rain mn
cm
humidity
%
barometer
mb
20260503224939 20 221 11.3 20.9 0.00 0.00 0.00 59 1012.7
20260503224441 20 217 11.3 20.9 0.00 0.00 0.00 60 1012.7
20260503223939 20 223 11.3 24.1 0.00 0.00 0.00 59 1012.8
20260503223440 20 248 12.9 24.1 0.00 0.00 0.00 59 1012.8
20260503222940 21 226 11.3 19.3 0.00 0.00 0.00 59 1012.9
20260503222440 21 223 9.7 17.7 0.00 0.00 0.00 60 1012.9
20260503221939 20 221 11.3 22.5 0.00 0.00 0.00 61 1012.9
20260503221439 20 219 11.3 22.5 0.00 0.00 0.00 60 1013.0
20260503220940 20 229 9.7 19.3 0.00 0.00 0.00 60 1013.0
20260503220438 20 223 11.3 22.5 0.00 0.00 0.00 61 1013.0
20260503215937 20 196 9.7 22.5 0.00 0.00 0.00 61 1013.1
20260503215438 20 226 9.7 16.1 0.00 0.00 0.00 60 1013.2
20260503214937 20 225 8.0 16.1 0.00 0.00 0.00 61 1013.3
20260503214438 20 237 9.7 19.3 0.00 0.00 0.00 63 1013.2
20260503213938 20 249 9.7 19.3 0.00 0.00 0.00 61 1013.3
20260503213438 21 227 8.0 17.7 0.00 0.00 0.00 60 1013.3
20260503212939 21 229 8.0 17.7 0.00 0.00 0.00 61 1013.4
20260503212437 20 237 6.4 16.1 0.00 0.00 0.00 61 1013.4
20260503211936 20 249 8.0 12.9 0.00 0.00 0.00 60 1013.4
20260503211436 21 252 8.0 14.5 0.00 0.00 0.00 60 1013.4
20260503210935 21 225 8.0 17.7 0.00 0.00 0.00 60 1013.4
20260503210436 21 214 4.8 17.7 0.00 0.00 0.00 61 1013.4
20260503205935 21 230 3.2 11.3 0.00 0.00 0.00 64 1013.5
20260503204933 20 227 6.4 14.5 0.00 0.00 0.00 62 1013.6
20260503203934 20 240 4.8 12.9 0.00 0.00 0.00 65 1013.6
20260503203702 20 237 4.8 11.3 0.00 0.00 0.00 67 1013.7
20260503202929 20 238 4.8 11.3 0.00 0.00 0.00 67 1013.8
20260503202430 19 256 4.8 12.9 0.00 0.00 0.00 70 1013.8
20260503201928 18 257 6.4 12.9 0.00 0.00 0.00 71 1013.9
20260503201426 18 207 6.4 12.9 0.00 0.00 0.00 72 1014.0
20260503200926 18 228 8.0 14.5 0.00 0.00 0.00 74 1014.1
20260503200421 17 225 8.0 14.5 0.00 0.00 0.00 74 1014.1
20260503195917 17 232 8.0 14.5 0.00 0.00 0.00 75 1014.2
20260503195417 17 244 6.4 12.9 0.00 0.00 0.00 78 1014.3
20260503194912 16 234 8.0 14.5 0.00 0.00 0.00 78 1014.3
20260503194413 16 231 9.7 14.5 0.00 0.00 0.00 79 1014.4
20260503193911 16 223 8.0 14.5 0.00 0.00 0.00 79 1014.5
20260503193412 16 237 6.4 14.5 0.00 0.00 0.00 80 1014.6
20260503193142 16 257 9.7 16.1 0.00 0.00 0.00 80 1014.6
20260503192409 16 222 11.3 16.1 0.00 0.00 0.00 80 1014.6
20260503191907 16 225 9.7 17.7 0.00 0.00 0.00 79 1014.7
20260503191639 16 210 8.0 17.7 0.00 0.00 0.00 79 1014.7
20260503190908 16 193 8.0 16.1 0.00 0.00 0.00 79 1014.8
20260503190408 16 223 8.0 14.5 0.00 0.00 0.00 79 1014.8
20260503190138 16 234 9.7 14.5 0.00 0.00 0.00 80 1014.8
20260503185407 16 226 8.0 14.5 0.00 0.00 0.00 80 1014.8
20260503184909 16 230 8.0 14.5 0.00 0.00 0.00 81 1014.8
20260503184638 16 238 6.4 17.7 0.00 0.00 0.00 82 1014.8
20260503183909 16 221 8.0 17.7 0.00 0.00 0.00 82 1014.9
20260503183407 16 219 8.0 16.1 0.00 0.00 0.00 83 1014.8
20260503182908 16 221 8.0 16.1 0.00 0.00 0.00 84 1014.9
20260503182404 16 221 8.0 16.1 0.00 0.00 0.00 84 1014.9
20260503181903 16 223 6.4 14.5 0.00 0.00 0.00 85 1014.9
20260503180859 15 223 9.7 16.1 0.00 0.00 0.00 85 1014.9
20260503180359 15 224 9.7 16.1 0.00 0.00 0.00 85 1014.9
20260503175900 15 223 9.7 16.1 0.00 0.00 0.00 85 1014.9
20260503175355 15 224 9.7 16.1 0.00 0.00 0.00 85 1014.8
20260503174851 15 224 9.7 16.1 0.00 0.00 0.00 85 1014.8
20260503174352 15 225 9.7 16.1 0.00 0.00 0.00 84 1014.7
20260503173852 15 211 8.0 14.5 0.00 0.00 0.00 84 1014.7
20260503173351 15 213 8.0 14.5 0.00 0.00 0.00 84 1014.7
20260503172851 15 215 8.0 14.5 0.00 0.00 0.00 83 1014.7
20260503172351 15 226 6.4 11.3 0.00 0.00 0.00 82 1014.6
20260503171853 15 232 6.4 9.7 0.00 0.00 0.00 81 1014.6
20260503171624 15 233 6.4 9.7 0.00 0.00 0.00 81 1014.5
20260503170852 15 234 6.4 9.7 0.00 0.00 0.00 80 1014.5
20260503170349 15 234 6.4 11.3 0.00 0.00 0.00 80 1014.5
20260503170120 15 235 4.8 11.3 0.00 0.00 0.00 80 1014.5
20260503150839 14 257 3.2 6.4 0.00 0.00 0.00 81 1014.1
20260503150341 14 257 4.8 6.4 0.00 0.00 0.00 81 1014.1
20260503131319 14 257 3.2 6.4 0.00 0.00 0.00 86 1013.4
20260503130816 14 257 3.2 6.4 0.00 0.00 0.00 86 1013.4
20260503130316 14 257 3.2 6.4 0.00 0.00 0.00 86 1013.4
20260503110758 14 257 4.8 11.3 0.00 0.00 0.00 86 1012.8
20260503110257 14 257 4.8 11.3 0.00 0.00 0.00 86 1012.7
20260503100250 14 257 6.4 11.3 0.00 0.00 0.00 85 1013.1
20260503090238 14 238 3.2 11.3 0.00 0.00 0.00 85 1013.2
20260503081227 14 238 1.6 6.4 0.00 0.00 0.00 83 1013.4
20260503080727 15 238 3.2 6.4 0.00 0.00 0.00 83 1013.4
20260503080225 15 238 3.2 8.0 0.00 0.00 0.00 83 1013.4
20260503072723 15 238 3.2 6.4 0.00 0.00 0.00 82 1013.2
20260503072222 15 238 3.2 8.0 0.00 0.00 0.00 82 1013.2
20260503071719 15 238 3.2 8.0 0.00 0.00 0.00 81 1013.1
20260503071221 15 238 3.2 6.4 0.00 0.00 0.00 81 1013.0
20260503070715 15 238 4.8 8.0 0.00 0.00 0.00 81 1013.1
20260503070212 15 238 4.8 9.7 0.00 0.00 0.00 80 1013.0
20260503060158 16 239 3.2 8.0 0.00 0.00 0.00 77 1012.9
20260503054655 16 238 4.8 12.9 0.00 0.00 0.00 77 1013.0
20260503054422 16 239 6.4 12.9 0.00 0.00 0.00 77 1013.1
20260503053650 16 232 6.4 12.9 0.00 0.00 0.00 77 1013.1
20260503053151 16 227 8.0 12.9 0.00 0.00 0.00 77 1013.1
20260503052920 16 231 8.0 12.9 0.00 0.00 0.00 76 1013.1
20260503052151 16 236 6.4 12.9 0.00 0.00 0.00 76 1013.1
20260503051650 16 235 8.0 12.9 0.00 0.00 0.00 76 1012.9
20260503051151 16 227 6.4 12.9 0.00 0.00 0.00 76 1012.9
20260503050650 16 228 6.4 12.9 0.00 0.00 0.00 76 1012.9
20260503050151 16 228 8.0 12.9 0.00 0.00 0.00 76 1012.9
20260503045645 17 228 6.4 11.3 0.00 0.00 0.00 75 1012.8
20260503045142 17 229 6.4 12.9 0.00 0.00 0.00 75 1012.7
20260503044641 17 228 6.4 12.9 0.00 0.00 0.00 75 1012.8
20260503044411 17 229 6.4 12.9 0.00 0.00 0.00 75 1012.7
20260503043640 17 230 8.0 14.5 0.00 0.00 0.00 75 1012.7
20260503043141 17 233 6.4 14.5 0.00 0.00 0.00 74 1012.6
20260503042638 17 229 6.4 9.7 0.00 0.00 0.00 74 1012.5
20260503042138 17 227 8.0 14.5 0.00 0.00 0.00 74 1012.3
20260503041638 17 227 8.0 14.5 0.00 0.00 0.00 73 1012.2
20260503041139 17 227 8.0 14.5 0.00 0.00 0.00 73 1012.1
20260503040632 17 225 9.7 16.1 0.00 0.00 0.00 73 1012.0
20260503040133 17 225 8.0 16.1 0.00 0.00 0.00 72 1012.0
20260503035633 18 227 8.0 12.9 0.00 0.00 0.00 72 1011.9
20260503035132 18 223 6.4 12.9 0.00 0.00 0.00 71 1011.8
20260503034633 18 225 6.4 11.3 0.00 0.00 0.00 71 1011.7
20260503034405 18 225 6.4 16.1 0.00 0.00 0.00 70 1011.6
20260503033631 18 225 6.4 16.1 0.00 0.00 0.00 70 1011.5
20260503033129 18 232 4.8 11.3 0.00 0.00 0.00 69 1011.4
20260503032626 19 224 8.0 14.5 0.00 0.00 0.00 69 1011.3
20260503032126 19 223 8.0 14.5 0.00 0.00 0.00 68 1011.2
20260503031625 19 222 6.4 17.7 0.00 0.00 0.00 68 1011.2
20260503031124 19 222 8.0 17.7 0.00 0.00 0.00 67 1011.1
20260503030624 20 223 9.7 17.7 0.00 0.00 0.00 67 1011.0
20260503030120 20 229 9.7 17.7 0.00 0.00 0.00 66 1010.9
20260503025621 20 232 8.0 16.1 0.00 0.00 0.00 65 1010.8
20260503025120 20 239 8.0 16.1 0.00 0.00 0.00 65 1010.6
20260503024622 20 221 9.7 16.1 0.00 0.00 0.00 64 1010.5
20260503024121 21 223 9.7 17.7 0.00 0.00 0.00 64 1010.4
20260503023618 21 236 9.7 17.7 0.00 0.00 0.00 63 1010.3
20260503023118 21 223 9.7 17.7 0.00 0.00 0.00 63 1010.1
20260503022619 21 221 9.7 17.7 0.00 0.00 0.00 62 1010.1
20260503022117 22 221 8.0 14.5 0.00 0.00 0.00 61 1010.0
20260503021617 22 221 8.0 12.9 0.00 0.00 0.00 60 1010.1
20260503021116 22 221 8.0 12.9 0.00 0.00 0.00 59 1010.0
20260503020616 22 221 8.0 14.5 0.00 0.00 0.00 59 1010.0
20260503020116 23 223 9.7 16.1 0.00 0.00 0.00 58 1010.1
20260503015617 23 222 8.0 16.1 0.00 0.00 0.00 58 1010.1
20260503015345 23 220 8.0 16.1 0.00 0.00 0.00 57 1010.0
20260503014614 23 232 8.0 16.1 0.00 0.00 0.00 57 1009.9
20260503014114 23 224 8.0 16.1 0.00 0.00 0.00 57 1009.9
20260503013615 23 227 9.7 20.9 0.00 0.00 0.00 57 1009.9
20260503013346 23 223 11.3 20.9 0.00 0.00 0.00 58 1010.0
20260503012613 23 225 11.3 20.9 0.00 0.00 0.00 57 1010.0
20260503012110 23 219 11.3 19.3 0.00 0.00 0.00 56 1010.0
20260503011611 23 224 12.9 22.5 0.00 0.00 0.00 56 1010.0
20260503011108 24 219 12.9 22.5 0.00 0.00 0.00 56 1009.9
20260503010609 24 229 12.9 20.9 0.00 0.00 0.00 55 1010.0
20260503010109 24 236 12.9 20.9 0.00 0.00 0.00 55 1009.9
20260503005605 24 223 12.9 25.7 0.00 0.00 0.00 55 1009.9
20260503005105 25 218 12.9 25.7 0.00 0.00 0.00 54 1009.9
20260503004606 25 219 14.5 24.1 0.00 0.00 0.00 54 1009.9
20260503004104 25 221 14.5 24.1 0.00 0.00 0.00 53 1009.9
20260503003102 26 203 12.9 24.1 0.00 0.00 0.00 53 1009.9
20260503002603 26 219 12.9 24.1 0.00 0.00 0.00 52 1010.0
20260503002103 26 223 12.9 22.5 0.00 0.00 0.00 51 1009.9
20260503001603 26 224 11.3 19.3 0.00 0.00 0.00 51 1009.8
20260503001102 26 213 12.9 19.3 0.00 0.00 0.00 52 1009.9
20260503000604 26 219 12.9 19.3 0.00 0.00 0.00 51 1009.8
20260503000104 26 230 11.3 19.3 0.00 0.00 0.00 50 1009.8
20260502235603 27 227 11.3 20.9 0.00 0.00 0.00 49 1009.8
20260502235104 27 218 11.3 20.9 0.00 0.00 0.00 47 1009.7
20260502234833 27 243 9.7 19.3 0.00 0.00 0.00 47 1009.7
20260502234336 27 221 11.3 22.5 0.00 0.00 0.00 48 1009.8
20260502233559 27 214 11.3 22.5 0.00 0.00 0.00 47 1009.8
20260502233328 27 208 12.9 22.5 0.00 0.00 0.00 47 1009.8
20260502232556 27 229 12.9 22.5 0.00 0.00 0.00 46 1009.9
20260502232056 27 226 11.3 20.9 0.00 0.00 0.00 46 1010.0
20260502231557 27 231 11.3 24.1 0.00 0.00 0.00 47 1009.9
20260502231053 27 254 14.5 24.1 0.00 0.00 0.00 47 1009.9
20260502230551 27 232 12.9 24.1 0.00 0.00 0.00 45 1010.1
20260502230050 27 267 12.9 25.7 0.00 0.00 0.00 47 1010.1